Terminal Aerodrome Forecast
Issued by NWS Miami, FL

Home | Current Version | Previous Version | Text Only | Print | Product List | Glossary On
Versions: 1 2 3 4 5 6 7 8 9 10 11 12 13 14 15 16 17 18 19 20 21 22 23 24 25 26 27 28 29 30 31 32 33 34 35 36 37 38 39 40 41 42 43 44 45 46 47 48 49 50
000
FTUS42 KMFL 221529 AAB
TAFFLL
TAF AMD
KFLL 221529Z 2215/2312 10015G22KT P6SM VCTS SCT025CB BKN040 BKN080
     FM221700 10010G20KT P6SM VCTS SCT025CB BKN050 BKN200
     FM230100 VRB03KT P6SM BKN120=

USA.gov is the U.S. government's official web portal to all federal, state and local government web resources and services.